COSMOS 1275 DEB, 12655

Orbit data source: Space-Track

COSMOS 1275 DEB, 12655 is space debris in LEO originally from a launch on Thu, 04 Jun 1981 UTC launched from the Plesetsk Missile And Space Complex (PKMTR). Debris objects in space refer to the collection of defunct objects orbiting the Earth. Examples of debris include non-operational satellites, rocket bodies, and fragments generated from explosions, collisions, or faulty payload assembly.

Loading next visibility...
Identifier
12655, 1981-053K
Orbit
LEO
Country
Flag of CISCIS
Related business
Manufacturer
Unknown
Mission
Spacecraft
Bus & Motor
Unknown
Mass
Unknown
Launch date (UTC)
1981-06-04 (45 years ago)
Launch vehicle
Unknown
Launch site
Plesetsk Missile And Space Complex (PKMTR)
Object type
Payload
Rocket body
Debris
Shape & HBR
Unknown shape, 0.2 m
Radar Cross Section
Medium (>0.1 m² and <1 m²)

Expand to show TLE details & history
Last TLE update: 6 hours ago

TLE from 6 hours ago
0 COSMOS 1275 DEB
1 12655U 81053K   26255.22414515  .00000088  00000-0  73430-4 0  9997
2 12655  82.9628 167.2730 0032894 182.0775 332.0422 13.76840081265375
Epoch: 2026-09-12T05:22Z
TLE epoch observation values (Epoch: 2026-09-12T05:22:46.140Z)
Latitude
25.87904°
Longitude
-88.07077°
Altitude
956.902 km
Speed
7.386 km/s
True Right ascension
22h 55m 25s
True Declination
25° 44' 52"
Sunlit
Object was in full shadow at epoch
Visualization orbit readout
Latitude
Unknown
Longitude
Unknown
Altitude
Unknown
Speed
Unknown
Apparent Right ascension
Unknown
Apparent Declination
Unknown
Sunlit
N/A
Visualization observer readout
Local Sidereal Time
03:50:01
Azimuth
Unknown
Elevation
Unknown
Doppler factor
Unknown
Orbital elements
Apogee altitude
996.44 km
Perigee altitude
948.083 km
Semi-major axis
7,350.398 km
Eccentricity
0.00329
Inclination
82.9628°
RAAN
167.273°
Arg. of periapsis
182.0775°
True anomaly
331.86484°
Mean anomaly
332.0422°
Eccentric anomaly
331.95358°
Mean motion
3.44411 °/min
Orbital period
104.53 mins
BSTAR
0.00007343
Loading maneuver chart data...
Computing Atmospheric mass density...
Loading historical data...
Loading historical data...
Loading historical data...
Loading historical data...
Loading historical data...
Loading historical data...
Loading historical data...

Documentation

Showing up to 5 results
|